OK1FET-15 Weather Reports


time (UTC)temp
F
wind
direction
speed
knots
gust
knots
rain 1hr
in
rain 24hr
in
rain mn
in
humidity
%
barometer
mb
20260505062804 69 137 0.0 0.0 0.00 0.00 0.00 64 1008.1
20260505062256 68 137 0.0 1.7 0.00 0.00 0.00 60 1008.1
20260505061749 68 83 0.0 0.0 0.00 0.00 0.00 68 1008.1
20260505061241 67 105 0.0 1.7 0.00 0.00 0.00 70 1008.1
20260505060733 67 120 0.9 3.5 0.00 0.00 0.00 71 1008.2
20260505060225 66 109 0.0 0.0 0.00 0.00 0.00 75 1008.3
20260505055718 65 83 0.0 0.0 0.00 0.00 0.00 84 1008.4
20260505055210 64 97 0.0 0.0 0.00 0.00 0.00 88 1008.5
20260505054703 62 85 0.0 0.0 0.00 0.00 0.00 89 1008.4
20260505054138 62 140 0.0 0.0 0.00 0.00 0.00 89 1008.4
20260505053613 61 112 0.0 0.0 0.00 0.00 0.00 90 1008.4
20260505053048 61 132 0.0 0.0 0.00 0.00 0.00 90 1008.4
20260505052523 60 117 0.0 0.0 0.00 0.00 0.00 90 1008.5
20260505051958 60 110 0.0 0.0 0.00 0.00 0.00 90 1008.5
20260505051433 60 86 0.0 0.0 0.00 0.00 0.00 90 1008.5
20260505050908 59 126 0.0 0.0 0.00 0.00 0.00 90 1008.4
20260505050344 59 122 0.0 0.0 0.00 0.00 0.00 90 1008.5
20260504182423 66 38 0.0 0.0 0.00 0.00 0.00 41 1010.7
20260504181859 66 7 0.0 0.0 0.00 0.00 0.00 40 1010.7
20260504181334 66 327 0.0 0.0 0.00 0.00 0.00 39 1010.7
20260504180809 67 293 0.0 0.0 0.00 0.00 0.00 39 1010.6
20260504180243 67 270 0.0 0.0 0.00 0.00 0.00 37 1010.6
20260504175736 68 229 0.0 0.0 0.00 0.00 0.00 37 1010.6
20260504175228 68 225 0.0 0.0 0.00 0.00 0.00 36 1010.5
20260504174720 69 225 0.0 0.0 0.00 0.00 0.00 36 1010.5
20260504174212 69 225 0.0 0.0 0.00 0.00 0.00 36 1010.4
20260504173704 70 225 0.0 0.0 0.00 0.00 0.00 36 1010.4
20260504173157 70 225 0.0 0.0 0.00 0.00 0.00 36 1010.4
20260504172649 71 225 0.0 0.0 0.00 0.00 0.00 36 1010.5
20260504172141 71 225 0.0 0.0 0.00 0.00 0.00 35 1010.6
20260504171633 72 225 0.0 0.0 0.00 0.00 0.00 34 1010.6
20260504171125 72 225 0.0 0.0 0.00 0.00 0.00 34 1010.6
20260504170617 73 225 0.0 0.0 0.00 0.00 0.00 34 1010.6
20260504170109 73 181 0.0 0.0 0.00 0.00 0.00 34 1010.7
20260504160441 77 110 0.0 0.0 0.00 0.00 0.00 30 1011.0
20260504150809 85 182 0.0 0.9 0.00 0.00 0.00 25 1011.4
20260504150300 85 91 0.0 0.0 0.00 0.00 0.00 25 1011.4
20260504141133 88 119 0.0 0.0 0.00 0.00 0.00 24 1011.6
20260504140625 86 180 0.0 0.0 0.00 0.00 0.00 24 1011.7
20260504140116 86 232 0.0 0.0 0.00 0.00 0.00 24 1011.8
20260504130442 82 105 0.0 0.0 0.00 0.00 0.00 26 1012.3
20260504120257 91 188 0.0 0.0 0.00 0.00 0.00 21 1012.6
20260504110618 89 62 0.0 0.0 0.00 0.00 0.00 22 1013.2
20260504110110 88 220 0.0 0.9 0.00 0.00 0.00 24 1013.2
20260504100432 86 164 0.9 2.6 0.00 0.00 0.00 27 1013.9
20260504081636 75 37 0.0 1.7 0.00 0.00 0.00 39 1014.1
20260504081128 75 77 0.0 0.0 0.00 0.00 0.00 39 1014.1
20260504080619 75 122 0.0 1.7 0.00 0.00 0.00 40 1014.1
20260504080111 75 111 0.0 0.0 0.00 0.00 0.00 40 1014.1